Location: B?ogocice
(50.2413°N, 20.2361°E)
Time: 15:31:07
(UTC+00:00)

Cosmos 1898 Rocket - Pass Details

Date: 15 June 2024
Orbit: 751 x 781 km, 74.0° (Epoch: 15 July)

Event Time Altitude Azimuth Distance (km) Brightness Sun altitude
Exits shadow 01:01:16 11° 232° (SW) 2,180 5.3 -10.0°
Maximum altitude 01:05:53 42° 302° (WNW) 1,067 4.3 -9.6°
Drops below altitude 10° 01:10:48 10° 14° (NNE) 2,286 7.2 -9.2°
Sets 01:13:18 0° 21° (NNE) 3,215 8.6 -9.0°
